SCP
0 0 0 0 0 0 0 0 0 0 0 0 0 0 0 0 1 2 4 4 3 3 4 5 6 7 8 9 11 11 10 9 9 8 7 5 3 1 0 0 0 0 0 0
0 0 0 0 0 0 0 0 0 0 0 0 0 0 0 0 0 2 3 4 3 4 6 7 8 8 9 10 11 12 11 10 10 8 7 4 2 1 0 0 0 0 0 0
0 0 0 0 0 0 0 0 0 0 0 0 0 0 0 0 0 1 2 3 4 5 7 9 10 10 10 10 11 12 12 12 10 8 5 3 1 0 0 0 0 0 0 0
0 0 0 0 0 0 0 0 0 0 0 0 0 0 0 0 0 0 1 2 4 6 8 11 12 12 11 11 12 12 12 11 9 6 3 1 1 0 0 0 0 0 0 0
0 0 0 0 0 0 0 0 0 0 0 0 0 0 0 0 0 0 0 1 4 6 9 12 14 14 13 13 13 12 10 8 5 3 1 1 0 0 0 0 0 0 0 0
0 0 0 0 0 0 0 0 0 0 0 0 0 0 0 0 0 1 2 3 4 7 10 14 16 16 14 13 11 9 7 5 3 1 1 0 0 0 0 0 0 0 0 0
0 0 0 0 0 0 0 0 0 0 0 0 0 0 0 0 1 2 3 4 6 8 11 15 16 15 13 11 8 6 4 2 1 1 0 0 0 0 0 0 0 0 0 0
0 0 0 0 0 0 0 0 0 0 0 0 0 0 0 1 2 3 4 5 6 8 10 13 13 12 10 7 5 3 1 0 0 0 0 0 0 0 0 0 0 0 0 0
0 0 0 0 0 0 0 0 0 0 0 0 0 0 1 2 3 3 4 5 5 6 8 9 9 8 6 4 2 1 0 0 0 0 0 0 0 0 0 0 0 0 0 0
0 0 0 0 0 0 0 0 0 0 0 0 0 0 1 1 2 3 4 5 6 6 6 5 5 4 3 2 1 0 0 0 0 0 0 0 0 0 0 0 0 0 0 0
0 0 0 0 0 0 0 0 0 0 0 0 0 1 1 1 2 3 4 6 6 6 4 3 2 1 1 0 0 0 0 0 0 0 0 0 0 0 0 0 0 0 0 0
0 0 0 0 0 0 0 0 0 0 0 0 0 1 2 2 2 3 4 5 4 3 2 1 0 0 0 0 0 0 0 0 0 0 0 0 0 0 0 0 0 0 0 0
0 0 0 0 0 0 0 0 0 0 0 0 1 1 2 3 3 3 3 2 1 1 0 0 0 0 0 0 0 0 0 0 0 0 0 0 0 0 0 0 0 0 0 0
0 0 0 0 0 0 0 0 0 0 0 0 1 2 3 3 3 2 1 0 0 0 0 0 0 0 0 0 0 0 0 0 0 0 0 0 0 0 0 0 0 0 0 0
0 0 0 0 0 0 0 0 0 0 0 1 1 2 3 3 2 1 1 0 0 0 0 0 0 0 0 0 0 0 0 0 0 0 0 0 0 0 0 0 0 0 0 0
0 0 0 0 0 0 0 0 0 0 1 1 2 2 2 2 2 1 1 0 0 0 0 0 0 0 0 0 0 0 0 0 0 0 0 0 0 0 0 0 0 0 0 0
0 0 0 0 0 0 0 0 1 1 1 1 2 2 2 1 1 1 0 0 0 0 0 0 0 0 0 0 0 0 0 0 0 0 0 0 0 0 0 0 0 0 0 0
0 0 0 0 0 0 0 0 1 1 1 1 1 1 1 1 1 0 0 0 0 0 0 0 0 0 0 0 0 0 0 0 0 0 0 0 0 0 0 0 0 0 0 0
0 0 0 0 0 0 0 0 0 0 0 1 1 1 1 0 0 0 0 0 0 0 0 0 0 0 0 0 0 0 0 0 0 0 0 0 0 0 0 0 0 0 0 0
0 0 0 0 0 0 0 0 0 0 0 0 0 0 0 0 0 0 0 0 0 0 0 0 0 0 0 0 0 0 0 0 0 0 0 0 0 0 0 0 0 0 0 0
0 0 0 0 0 0 0 0 0 0 0 0 0 0 0 0 0 0 0 0 0 0 0 0 0 0 0 0 0 0 0 0 0 0 0 0 0 0 0 0 0 0 0 0
0 0 0 0 0 0 0 0 0 0 0 0 0 0 0 0 0 0 0 0 0 0 0 0 0 0 0 0 0 0 0 0 0 0 0 0 0 0 0 0 0 0 0 0
0 0 0 0 0 0 0 0 0 0 0 0 0 0 0 0 0 0 0 0 0 0 0 0 0 0 0 0 0 0 0 0 0 0 0 0 0 0 0 0 0 0 0 0
0 0 0 0 0 0 0 0 0 0 0 0 0 0 0 0 0 0 0 0 0 0 0 0 0 0 0 0 0 0 0 0 0 0 0 0 0 0 0 0 0 0 0 0
0 0 0 0 0 0 0 0 0 0 0 0 0 0 0 0 0 0 0 0 0 0 0 0 0 0 0 0 0 0 0 0 0 0 0 0 0 0 0 0 0 0 0 0
0 0 0 0 0 0 0 0 0 0 0 0 0 0 0 0 0 0 0 0 0 -0 0 0 0 0 0 0 0 0 0 0 0 0 0 0 0 0 0 0 0 0 0 0
Wind_Speed
4 4 6 7 7 7 4 5 8 12 11 6 9 12 15 15 10 10 15 18 19 19 14 11 12 13 12 12 12 12 14 12 11 10 9 8 6 5 5 5 6 8 8 8
2 7 10 7 5 5 7 9 11 13 11 5 6 7 8 10 10 11 14 15 16 12 11 13 13 12 12 11 10 9 12 11 10 9 7 6 7 6 5 4 6 7 8 7
11 9 7 7 8 8 9 10 14 13 12 6 2 7 8 8 3 4 8 11 14 20 22 19 15 12 12 11 10 9 11 11 10 10 9 10 7 6 4 5 4 5 7 7
10 11 8 8 11 10 11 12 12 12 7 6 1 3 9 6 7 6 6 5 9 16 19 19 16 14 13 10 7 8 9 10 10 11 12 12 8 6 4 4 4 4 5 6
9 9 12 13 17 13 14 13 8 4 1 3 5 1 9 6 7 9 9 8 7 14 18 19 16 13 10 8 8 8 10 10 11 11 11 11 9 7 5 5 5 4 4 5
11 8 9 14 17 15 12 4 4 6 6 3 5 1 9 7 9 10 7 6 6 12 12 10 9 10 9 9 9 10 12 10 11 12 11 12 13 11 8 6 5 3 3 3
9 11 9 7 8 9 5 6 4 4 4 6 4 2 10 12 8 6 4 2 3 11 13 13 12 12 12 12 11 11 13 11 11 12 12 12 12 10 9 7 6 5 3 3
8 11 9 8 10 9 6 12 10 7 5 6 4 5 7 6 7 9 9 9 13 15 15 14 13 13 12 12 11 11 13 12 11 12 11 10 9 6 5 5 5 6 4 3
9 10 9 9 9 10 7 6 11 10 5 2 5 5 4 8 12 13 13 14 14 14 14 14 13 12 12 11 10 11 12 11 10 10 10 9 9 7 7 7 7 6 4 3
9 6 6 5 2 4 11 10 7 7 7 5 5 3 3 1 7 10 11 12 12 13 13 12 12 12 12 11 10 10 10 11 10 9 8 9 9 8 9 9 9 7 5 4
2 5 4 2 3 3 2 5 6 6 7 8 4 5 4 3 8 11 11 10 10 11 11 10 10 11 12 12 11 10 10 10 9 9 9 9 8 8 8 8 7 6 4 4
4 4 1 2 3 1 3 2 6 6 6 7 6 4 7 3 9 12 12 10 9 9 8 9 10 11 12 12 11 11 10 10 8 8 8 8 7 7 7 6 5 5 4 3
5 5 3 6 8 8 7 5 2 4 4 3 5 2 5 8 10 10 10 9 8 7 7 7 8 8 9 10 11 10 9 9 8 8 7 7 7 7 7 6 5 5 5 6
4 5 4 2 1 4 4 4 2 6 5 3 3 6 4 6 9 8 7 7 7 6 6 6 6 7 8 8 9 9 8 7 7 7 7 6 6 6 6 6 7 7 7 7
5 4 3 2 4 5 5 7 3 3 7 7 7 6 3 6 9 9 8 7 7 6 6 6 7 7 7 8 8 8 7 6 7 8 8 7 7 7 8 8 8 7 6 5
6 4 5 8 9 6 6 9 5 5 5 11 11 6 3 6 7 8 8 9 7 6 6 7 8 8 8 8 9 9 9 8 9 10 9 8 8 8 7 6 5 5 5 5
4 4 4 4 8 5 9 10 7 8 6 7 6 6 6 8 7 5 5 7 7 6 6 7 7 7 8 8 9 10 9 9 10 9 8 7 6 6 5 5 5 5 4 4
3 3 2 2 6 3 2 7 14 15 13 11 11 9 8 10 8 9 6 4 6 7 8 7 8 8 8 8 9 9 9 9 8 6 5 3 4 4 5 5 5 4 2 2
2 5 3 3 2 2 2 5 3 7 6 6 9 9 9 7 7 8 9 6 6 8 8 8 8 8 8 8 8 8 7 6 5 3 2 2 3 5 5 4 3 2 2 2
6 5 5 3 3 2 2 7 3 10 4 2 6 7 7 4 2 1 4 7 9 9 8 8 8 9 8 6 6 6 4 3 3 3 2 3 5 5 4 3 2 2 3 3
5 5 3 3 1 1 4 7 5 5 4 1 4 5 5 4 4 7 8 7 8 9 8 8 8 7 5 4 3 3 2 2 2 4 6 6 6 5 4 3 3 4 4 4
1 1 1 2 2 4 4 5 4 4 3 4 5 5 8 9 10 9 9 9 9 9 7 7 6 4 2 2 1 1 2 3 4 6 7 6 5 5 5 5 4 4 4 3
1 3 3 3 5 3 1 4 3 4 4 4 5 7 11 11 9 9 8 8 7 7 6 4 5 3 1 1 1 1 2 5 6 7 6 5 5 4 4 4 4 3 3 2
3 1 2 3 2 1 3 4 4 4 4 4 7 9 8 9 10 9 8 7 6 5 4 4 3 1 1 1 0 2 3 5 7 7 5 4 4 3 3 3 3 3 2 2
3 3 2 2 2 3 4 3 3 5 6 7 7 7 9 11 11 10 8 7 5 5 3 3 1 1 0 2 3 3 3 5 6 6 5 4 3 3 2 2 2 3 2 2
3 1 1 3 2 2 2 1 2 5 6 8 10 9 8 9 10 10 8 5 5 4 3 2 1 2 3 5 5 4 4 5 6 5 4 3 2 2 2 2 1 1 2 3
Wind_Direction
200 144 209 223 204 195 224 265 275 277 281 290 269 261 264 266 249 199 190 197 201 203 197 181 174 165 162 163 162 162 162 158 146 139 134 128 117 99 81 76 86 91 93 90
233 235 222 214 232 234 244 260 271 283 283 257 260 271 273 269 236 193 184 192 198 183 171 173 171 170 168 164 156 155 163 158 151 146 137 124 117 101 84 73 63 72 81 81
202 231 218 219 241 243 247 235 249 257 284 315 337 328 324 319 311 204 190 182 179 176 175 174 170 170 163 162 160 159 161 153 142 134 121 114 101 93 88 88 77 68 75 79
218 234 236 227 234 227 250 239 233 243 247 278 44 288 296 302 320 303 272 226 184 178 173 171 168 166 163 154 141 138 142 135 131 130 132 133 128 123 118 116 107 97 93 96
227 215 215 233 242 232 236 244 229 223 191 352 353 8 286 305 290 279 279 271 210 182 174 172 168 156 138 127 125 120 119 119 119 119 123 118 111 109 112 108 104 90 87 96
232 234 205 219 238 234 228 220 36 50 65 336 272 254 284 265 248 263 279 288 226 174 159 138 119 113 108 105 102 104 103 103 111 115 117 122 126 129 135 134 129 115 99 94
262 262 250 235 254 261 184 113 43 356 5 261 270 248 255 268 270 255 268 347 85 126 124 118 118 115 111 106 102 103 104 104 110 114 118 125 130 137 145 147 144 141 122 104
228 263 247 226 213 220 196 147 157 185 214 269 315 232 264 319 31 55 69 77 89 100 108 109 110 112 111 108 107 110 108 109 109 111 114 118 119 122 129 134 137 140 125 123
198 239 257 246 226 174 159 172 168 147 177 224 277 275 329 39 60 65 72 78 85 94 98 100 100 101 103 102 102 106 109 106 104 106 107 109 109 105 103 102 102 107 105 109
185 228 276 278 307 230 173 156 108 126 162 225 267 280 286 328 102 97 93 92 90 91 91 92 95 99 100 99 96 93 96 101 99 95 97 102 98 98 101 102 102 108 113 113
161 185 283 26 62 290 118 129 130 142 160 166 214 265 296 254 147 124 108 97 97 98 99 100 102 106 109 108 105 99 93 93 93 92 92 93 92 95 97 101 108 114 116 118
5 126 198 263 284 293 85 116 142 162 217 165 156 234 342 48 121 121 114 105 99 100 102 107 110 112 113 112 108 103 100 99 98 97 94 91 89 89 91 93 94 96 93 75
20 67 51 354 2 12 47 41 77 128 113 137 149 176 33 85 104 110 111 106 99 94 92 94 100 109 114 113 112 110 109 109 107 103 97 92 89 90 94 93 86 76 64 53
75 70 108 129 338 332 344 358 67 102 109 107 124 124 111 121 123 116 106 99 94 88 87 89 94 100 106 107 111 112 110 110 108 101 94 89 89 91 92 82 70 64 64 65
61 54 29 31 13 18 2 353 1 120 148 145 147 127 142 152 140 129 122 112 104 100 98 97 102 105 105 104 101 99 95 95 101 96 89 85 83 80 76 72 70 72 74 76
37 41 30 9 3 14 26 16 53 76 104 118 114 99 91 108 117 122 130 130 133 139 127 113 110 110 107 103 98 90 82 80 85 86 84 80 78 77 76 81 89 89 80 66
12 47 54 354 338 27 22 360 63 62 52 127 123 125 124 96 85 98 136 143 154 146 124 109 101 95 93 91 92 89 85 82 80 78 78 77 80 88 94 98 93 87 79 68
133 87 100 38 33 51 69 56 73 68 48 66 97 107 102 100 80 51 45 122 137 124 112 103 99 93 87 88 85 82 77 77 77 75 73 79 99 104 105 100 93 84 77 76
137 133 109 97 77 315 49 22 37 102 54 55 104 112 119 121 74 41 32 56 97 108 111 108 105 102 94 87 87 88 83 82 84 89 97 116 117 113 106 99 90 75 72 54
34 74 105 110 134 221 300 326 22 105 78 34 112 136 159 165 108 115 72 86 97 104 109 111 106 100 94 89 90 96 102 108 122 127 104 97 106 106 106 102 81 61 71 63
10 28 69 104 161 246 309 322 37 115 170 167 110 122 129 132 135 126 115 107 111 113 113 111 106 103 108 110 104 117 138 153 148 113 99 98 104 107 102 83 73 72 74 62
49 52 52 118 190 245 323 34 83 156 160 121 116 120 120 121 118 122 126 127 127 122 114 110 110 112 118 112 112 124 166 155 127 117 109 104 98 93 90 86 76 73 76 59
87 188 189 182 209 220 75 106 136 148 126 129 137 141 136 134 136 134 135 134 131 125 118 111 114 113 69 350 117 111 148 136 126 118 114 109 95 87 101 108 100 75 62 53
332 19 77 41 21 45 59 79 78 94 110 119 132 138 136 134 137 135 135 135 131 123 117 106 105 98 306 302 178 162 155 132 126 127 128 124 117 114 114 120 122 112 92 58
306 0 47 57 57 53 40 54 85 84 90 100 109 118 131 133 135 134 133 136 134 124 118 126 152 216 220 102 92 96 103 111 121 132 141 142 149 156 155 147 155 150 167 167
343 53 148 216 227 189 229 278 109 106 106 114 112 106 115 125 129 130 132 136 138 142 152 174 192 129 112 102 92 80 79 96 115 129 147 159 168 172 166 153 104 160 181 185